Weather in Konkovichi

Belarus     52°09′38″N   28°42′21″E
temp.,
°C
wind,
m/s
gust,
m/s
humid.,
%
clouds,
%
prec.,
mm/h
press.,
hPa
HPBL,
m
12 may, wed
wed1200:00+12e39915 0.0 1019159
03:00+11ese411952 0.0 1019363
06:00+9ese512934 0.0 1020409
09:00+11ese79670 0.0 1020793
12:00+14ese795510 0.0 10191475
15:00+16se795028 0.0 10181912
18:00+16ese585898 0.1 10161662
21:00+11ese2576100 0.1 1015135
13 may, thu
thu1300:00+9se2284100 0.0 101342
03:00+8ese2287100 0.0 101246
06:00+9ese1286100 0.1 1011101
09:00+11se347698 0.1 1010569
12:00+13sse5770100 1.2 10101202
15:00+14sse5760100 1.4 10091748
18:00+14ese6865100 0.0 1008849
21:00+10se51187100 0.5 1009471
14 may, fri
fri1400:00+10se6148699 0.2 1008522
03:00+11se61387100 0.2 1008526
06:00+11se5139391 0.0 1008580
09:00+12sse399399 0.2 1007525
12:00+16sse576999 0.0 1007960
15:00+20s4655100 0.4 10061658
18:00+18s4773100 1.2 1006650
21:00+13ssw3892100 3.9 1006179
15 may, sat
sat1500:00+13ssw3594100 0.6 1006112
03:00+10sw36958 0.6 1007109
06:00+9ssw359574 0.0 1008103
09:00+13ssw467812 0.0 1008594
12:00+17sw576367 0.1 10091441
15:00+16sw576434 0.4 10091234
18:00+15wsw467665 0.5 1009531
21:00+12wsw349062 1.5 101076
16 may, sun
sun1600:00+11sw369498 0.0 1011116
03:00+9sw34965 0.0 101268
06:00+9wsw22965 0.0 101233
09:00+14ssw2281100 0.0 1013399
12:00+18s2265100 0.0 1013903
15:00+21sse235393 0.0 10121447
18:00+20ese4664100 0.4 1010445
21:00+13nne2395100 2.5 101168